Miscellaneous Local Product
Issued by NWS Hastings, NE

Home | Current Version | Previous Version | Text Only | Print | Product List | Glossary Off
Versions: 1 2 3 4 5 6 7 8 9 10 11 12 13 14 15 16 17 18 19 20 21 22 23 24 25 26 27 28 29 30 31 32 33 34 35 36 37 38 39 40 41 42 43 44 45 46 47 48 49 50

000
AXUS43 KGID 290602
MISGRI

GID CWA HOURLY WEATHER ROUNDUP
NATIONAL WEATHER SERVICE HASTINGS NE
100 AM CDT WED JUL 29 2015

NOTE: "FAIR" INDICATES FEW OR NO CLOUDS BELOW 12,000 FEET WITH NO
SIGNIFICANT WEATHER AND/OR OBSTRUCTIONS TO VISIBILITY.

...SOUTH CENTRAL NEBRASKA...

CITY           SKY/WX    TMP DP  RH WIND       PRES   REMARKS
GRAND ISLAND   CLEAR     60  55  83 NE6       30.11R
HASTINGS       CLEAR     65  55  70 NE7       30.10R
KEARNEY        CLEAR     64  55  72 N6        30.11R
ORD            CLEAR     57  54  89 NW5       30.11R
YORK           CLEAR     64  59  82 N9        30.08R
AURORA         CLEAR     61  59  92 N6        30.10R
LEXINGTON      CLEAR     60  55  83 CALM      30.12R
HOLDREGE       CLEAR     61  56  84 N6        30.10S
HEBRON         MOCLDY    70  61  74 NE5       30.07R

...NEBRASKA PANHANDLE...

CITY           SKY/WX    TMP DP  RH WIND       PRES   REMARKS
CHADRON        CLEAR     50  43  77 CALM      30.22R
ALLIANCE       CLEAR     49  43  80 CALM      30.23R
SCOTTSBLUFF    CLEAR     58  39  49 CALM      30.24R
SIDNEY         CLEAR     53  41  63 NW7       30.24S

...WESTERN AND NORTH CENTRAL NEBRASKA...

CITY           SKY/WX    TMP DP  RH WIND       PRES   REMARKS
VALENTINE      CLEAR     56  47  71 NW6       30.16R
AINSWORTH      CLEAR     62  49  63 NW3       30.16R
ONEILL         CLEAR     62  55  80 N7        30.13R
BROKEN BOW     CLEAR     59  48  67 N9        30.13R
IMPERIAL       CLEAR     63  50  62 NW3       30.17S
NORTH PLATTE   CLEAR     57  51  80 CALM      30.15R
MCCOOK         PTCLDY    61  52  72 CALM      30.13R

...EASTERN NEBRASKA...

CITY           SKY/WX    TMP DP  RH WIND       PRES   REMARKS
NORFOLK        CLEAR     59  57  93 W3        30.08R
SO SIOUX CITY  CLEAR     62  59  90 NW3       30.05R
TEKAMAH        CLEAR     65  63  93 NW3       30.05R
COLUMBUS       CLEAR     61  54  77 N5        30.09R
ALBION         CLEAR     58  54  86 NW3       30.10R
OMAHA EPPLEY   MOCLDY    70  64  81 NW5       30.06R
MILLARD        MOCLDY    74  62  64 CALM      30.05R
LINCOLN        PTCLDY    67  63  87 CALM      30.08R
NEBRASKA CITY  CLOUDY    72  67  86 N5        30.07R
BEATRICE       CLOUDY    71  66  82 NE6       30.07R
FALLS CITY     TSTM      71  71 100 N6        30.01R

...NORTHERN KANSAS...

CITY           SKY/WX    TMP DP  RH WIND       PRES   REMARKS
GOODLAND       PTCLDY    61  51  70 CALM      30.18R
HILL CITY      CLEAR     62  59  90 N8        30.10R
NORTON         CLEAR     61  54  77 N6        30.10R
PHILLIPSBURG   CLEAR     70  59  68 N5        30.09R
SMITH CENTER   CLEAR     63  57  82 N6        30.09R
HAYS           PTCLDY    72  55  56 NE7       30.08R
RUSSELL        CLOUDY    74  60  61 NE12      30.05R
CONCORDIA      MOCLDY    73  62  68 E8        30.07R
SALINA         MOCLDY    78  63  59 N13       30.03R
TOPEKA         CLOUDY    81  76  84 N16       29.98R



USA.gov is the U.S. government's official web portal to all federal, state and local government web resources and services.